GW1851 Weather Reports


Display with metric or nautical units.
time (UTC)temp
F
wind
direction
speed
MPH
gust
MPH
rain 1hr
in
rain 24hr
in
rain mn
in
humidity
%
barometer
mb
20260505051003 54 219 0.0 0.0 0.00 0.00 0.00 97 1004.2
20260505050500 54 218 0.0 0.0 0.00 0.00 0.00 97 1004.1
20260505041428 56 225 0.0 0.0 0.00 0.47 0.47 99 1003.6
20260505040925 57 227 1.0 1.0 0.00 0.47 0.47 99 1003.3
20260505040423 57 232 1.0 2.0 0.00 0.47 0.47 99 1003.1
20260505035919 58 321 3.0 3.0 0.00 0.47 0.47 99 1002.5
20260505035415 58 225 0.0 0.0 0.00 0.47 0.47 99 1002.7
20260505034913 58 224 0.0 0.0 0.00 0.47 0.47 99 1003.1
20260505034409 58 224 2.0 3.0 0.00 0.47 0.47 99 1002.9
20260505033906 58 225 0.0 0.0 0.00 0.47 0.47 99 1002.3
20260505033403 58 223 0.0 0.0 0.00 0.47 0.47 99 1002.3
20260505032901 58 247 1.0 1.0 0.00 0.47 0.47 99 1002.1
20260505032357 58 230 2.0 2.0 0.00 0.47 0.47 99 1002.1
20260505031854 58 216 0.0 0.0 0.12 0.47 0.47 99 1001.9
20260505031351 58 221 0.0 0.0 0.66 0.47 0.47 99 1002.1
20260505030848 59 214 1.0 1.0 0.90 0.45 0.45 99 1002.4
20260505030344 59 215 0.0 0.0 0.54 0.37 0.37 99 1003.2
20260505025840 59 234 2.0 2.0 0.59 0.30 0.30 97 1002.6
20260505025337 60 173 1.0 2.0 0.71 0.28 0.28 96 1002.3
20260505024836 60 175 1.0 1.0 0.66 0.21 0.21 94 1003.0
20260505024333 61 243 3.0 3.0 0.97 0.16 0.16 91 1002.6
20260505023830 65 42 2.0 2.0 0.54 0.09 0.09 82 1002.9
20260505023327 68 244 4.0 6.0 0.00 0.00 0.00 62 1003.2
20260505022824 68 277 2.0 2.0 0.00 0.00 0.00 59 1001.6
20260505022321 68 124 2.0 2.0 0.00 0.00 0.00 58 1002.0
20260505021819 69 276 2.0 2.0 0.00 0.00 0.00 57 1001.8
20260505021315 69 302 3.0 5.0 0.00 0.00 0.00 57 1002.4
20260505020811 69 281 2.0 3.0 0.00 0.00 0.00 56 1002.0
20260505020307 70 345 5.0 6.0 0.00 0.00 0.00 56 1002.0
20260505015804 70 273 2.0 2.0 0.00 0.00 0.00 60 1001.9
20260505015301 69 233 2.0 3.0 0.00 0.00 0.00 72 1001.8
20260505014758 71 256 2.0 2.0 0.00 0.00 0.00 71 1001.4
20260505014255 71 217 0.0 0.0 0.00 0.00 0.00 69 1001.3
20260505013751 71 216 0.0 0.0 0.00 0.00 0.00 69 1001.2
20260505013249 71 212 0.0 0.0 0.00 0.00 0.00 68 1001.0
20260505012747 72 216 0.0 0.0 0.00 0.00 0.00 68 1001.1
20260505012244 72 218 0.0 0.0 0.00 0.00 0.00 67 1001.0
20260505011739 72 208 0.0 1.0 0.00 0.00 0.00 66 1000.9
20260505011237 73 216 0.0 0.0 0.00 0.00 0.00 64 1000.9
20260505010732 73 223 2.0 2.0 0.00 0.00 0.00 62 1000.5
20260505010229 73 218 0.0 0.0 0.00 0.00 0.00 60 1000.6
20260505005725 73 220 1.0 2.0 0.00 0.00 0.00 57 1000.4
20260505005223 73 208 0.0 0.0 0.00 0.00 0.00 57 1000.4
20260505004720 74 208 0.0 0.0 0.00 0.00 0.00 57 1000.3
20260505004216 74 229 1.0 1.0 0.00 0.00 0.00 57 1000.3
20260505003713 74 218 0.0 0.0 0.00 0.00 0.00 56 1000.2
20260505003211 74 206 0.0 0.0 0.00 0.00 0.00 55 1000.0
20260505002707 74 218 0.0 1.0 0.00 0.00 0.00 55 1000.2
20260505002205 75 205 2.0 2.0 0.00 0.00 0.00 54 1000.2
20260505001702 75 222 0.0 0.0 0.00 0.00 0.00 54 1000.0
20260505001159 75 221 0.0 0.0 0.00 0.00 0.00 54 1000.1
20260505000656 76 237 1.0 3.0 0.00 0.00 0.00 52 1000.1
20260505000154 77 205 2.0 3.0 0.00 0.00 0.00 51 1000.2
20260504235650 77 223 1.0 2.0 0.00 0.00 0.00 51 1000.2
20260504235147 77 217 0.0 0.0 0.00 0.00 0.00 52 1000.3
20260504234644 77 202 2.0 3.0 0.00 0.00 0.00 50 1000.2
20260504234141 78 222 2.0 2.0 0.00 0.00 0.00 50 1000.5
20260504233637 78 208 2.0 2.0 0.00 0.00 0.00 50 1000.2
20260504233133 78 206 1.0 1.0 0.00 0.00 0.00 49 1000.2
20260504232631 78 215 1.0 1.0 0.00 0.00 0.00 48 1000.2
20260504232128 78 185 4.0 7.0 0.00 0.00 0.00 48 1000.4
20260504231624 78 219 3.0 3.0 0.00 0.00 0.00 48 1000.1
20260504231121 78 212 3.0 5.0 0.00 0.00 0.00 48 1000.3
20260504230617 79 200 3.0 5.0 0.00 0.00 0.00 47 1000.3
20260504230116 79 215 5.0 10.0 0.00 0.00 0.00 46 1000.3
20260504225614 79 219 3.0 6.0 0.00 0.00 0.00 46 1000.4
20260504225110 79 224 2.0 3.0 0.00 0.00 0.00 48 1000.5
20260504224606 80 235 2.0 2.0 0.00 0.00 0.00 49 1000.3
20260504224103 79 217 1.0 1.0 0.00 0.00 0.00 49 1000.5
20260504223600 79 226 1.0 1.0 0.00 0.00 0.00 49 1000.3
20260504223056 79 235 2.0 3.0 0.00 0.00 0.00 48 1000.4
20260504222553 79 213 0.0 1.0 0.00 0.00 0.00 48 1000.5
20260504222050 79 218 2.0 2.0 0.00 0.00 0.00 50 1000.6
20260504221548 79 216 1.0 1.0 0.00 0.00 0.00 50 1000.7
20260504221044 79 229 2.0 2.0 0.00 0.00 0.00 48 1000.9
20260504220541 79 215 3.0 3.0 0.00 0.00 0.00 50 1000.8
20260504220038 79 293 3.0 5.0 0.00 0.00 0.00 49 1000.8
20260504215534 80 219 4.0 5.0 0.00 0.00 0.00 48 1001.0
20260504215032 79 207 1.0 1.0 0.00 0.00 0.00 49 1001.0
20260504214527 79 233 1.0 2.0 0.00 0.00 0.00 51 1001.0
20260504214024 79 212 4.0 6.0 0.00 0.00 0.00 50 1001.2
20260504213521 79 214 1.0 2.0 0.00 0.00 0.00 49 1001.1
20260504213018 79 215 2.0 2.0 0.00 0.00 0.00 52 1001.3
20260504212513 79 205 1.0 2.0 0.00 0.00 0.00 50 1001.2
20260504212011 80 236 5.0 7.0 0.00 0.00 0.00 50 1001.4
20260504211508 79 239 2.0 2.0 0.00 0.00 0.00 50 1001.6
20260504211005 79 216 3.0 5.0 0.00 0.00 0.00 51 1001.6
20260504210502 80 242 3.0 5.0 0.00 0.00 0.00 49 1001.3
20260504205959 80 229 2.0 2.0 0.00 0.00 0.00 52 1001.6
20260504205456 80 220 1.0 2.0 0.00 0.00 0.00 49 1001.7
20260504204955 80 226 4.0 7.0 0.00 0.00 0.00 47 1001.7
20260504204452 79 218 3.0 3.0 0.00 0.00 0.00 50 1001.8
20260504203951 80 249 2.0 3.0 0.00 0.00 0.00 49 1001.7
20260504203449 80 114 3.0 3.0 0.00 0.00 0.00 50 1001.5
20260504202944 81 181 1.0 3.0 0.00 0.00 0.00 49 1001.5
20260504202441 80 215 1.0 2.0 0.00 0.00 0.00 50 1001.7
20260504201938 81 236 4.0 6.0 0.00 0.00 0.00 47 1001.9
20260504201435 81 247 1.0 2.0 0.00 0.00 0.00 50 1002.0
20260504200933 81 225 1.0 2.0 0.00 0.00 0.00 51 1001.9
20260504200429 81 155 3.0 3.0 0.00 0.00 0.00 48 1001.9
20260504195926 81 226 1.0 1.0 0.00 0.00 0.00 49 1001.9
20260504195422 80 223 3.0 5.0 0.00 0.00 0.00 48 1001.8
20260504194919 80 233 3.0 3.0 0.00 0.00 0.00 47 1001.8
20260504194414 80 227 2.0 2.0 0.00 0.00 0.00 50 1001.6
20260504193911 80 203 3.0 5.0 0.00 0.00 0.00 52 1001.9
20260504193408 81 253 3.0 3.0 0.00 0.00 0.00 47 1001.8
20260504192907 80 222 1.0 1.0 0.00 0.00 0.00 51 1001.8
20260504192404 79 226 2.0 2.0 0.00 0.00 0.00 47 1001.8
20260504191902 80 236 2.0 2.0 0.00 0.00 0.00 50 1001.9
20260504191400 80 236 2.0 3.0 0.00 0.00 0.00 47 1002.0
20260504190855 80 222 4.0 7.0 0.00 0.00 0.00 48 1001.7
20260504190351 80 226 1.0 2.0 0.00 0.00 0.00 48 1001.8
20260504185848 80 226 4.0 6.0 0.00 0.00 0.00 47 1001.9
20260504185345 80 206 2.0 2.0 0.00 0.00 0.00 49 1001.9
20260504184841 80 224 2.0 2.0 0.00 0.00 0.00 50 1002.0
20260504184337 79 233 3.0 5.0 0.00 0.00 0.00 49 1001.9
20260504183833 80 214 2.0 2.0 0.00 0.00 0.00 48 1001.9
20260504183331 80 222 2.0 2.0 0.00 0.00 0.00 50 1002.0
20260504182828 80 225 2.0 2.0 0.00 0.00 0.00 50 1001.9
20260504182325 79 241 2.0 3.0 0.00 0.00 0.00 52 1001.8
20260504181822 78 254 2.0 3.0 0.00 0.00 0.00 52 1002.1
20260504181320 79 179 1.0 1.0 0.00 0.00 0.00 52 1002.3
20260504180819 79 214 3.0 5.0 0.00 0.00 0.00 49 1002.5
20260504180316 79 225 2.0 2.0 0.00 0.00 0.00 53 1002.6
20260504175814 78 215 2.0 3.0 0.00 0.00 0.00 53 1002.4
20260504175311 78 224 1.0 1.0 0.00 0.00 0.00 55 1002.5
20260504174809 78 157 4.0 6.0 0.00 0.00 0.00 52 1002.9
20260504174306 78 218 2.0 3.0 0.00 0.00 0.00 57 1002.7
20260504173803 77 223 1.0 2.0 0.00 0.00 0.00 54 1003.0
20260504173300 77 256 3.0 6.0 0.00 0.00 0.00 56 1003.0
20260504172756 77 207 1.0 2.0 0.00 0.00 0.00 56 1002.7
20260504172253 76 215 3.0 3.0 0.00 0.00 0.00 55 1003.1
20260504171749 77 263 3.0 3.0 0.00 0.00 0.00 53 1003.2
20260504171246 76 251 4.0 5.0 0.00 0.00 0.00 55 1003.2
20260504170743 75 238 4.0 8.0 0.00 0.00 0.00 55 1003.2
20260504170241 75 222 3.0 5.0 0.00 0.00 0.00 53 1003.5
20260504160159 74 246 3.0 5.0 0.00 0.00 0.00 54 1003.9
20260504151127 73 259 3.0 5.0 0.00 0.00 0.00 54 1004.2
20260504150624 74 234 4.0 5.0 0.00 0.00 0.00 53 1004.1
20260504150121 74 216 3.0 5.0 0.00 0.00 0.00 54 1004.1
20260504141049 69 180 1.0 2.0 0.00 0.00 0.00 66 1004.5
20260504140546 69 215 1.0 1.0 0.00 0.00 0.00 69 1004.3
20260504130510 61 217 3.0 3.0 0.00 0.00 0.00 81 1005.0
20260504110358 50 220 0.0 0.0 0.00 0.00 0.00 95 1005.7
20260504100315 49 220 0.0 0.0 0.00 0.00 0.00 95 1006.0
20260504081708 50 220 0.0 0.0 0.00 0.00 0.00 92 1006.6
20260504081205 50 220 0.0 0.0 0.00 0.00 0.00 91 1006.1
20260504080701 50 220 0.0 0.0 0.00 0.00 0.00 91 1006.3
20260504080157 50 220 0.0 0.0 0.00 0.00 0.00 90 1006.4
20260504070125 50 214 0.0 0.0 0.00 0.00 0.00 90 1007.3